Location: Kawakawa
(35.3830°S, 174.0670°E)
Time: 01:24:20
(UTC+13:00)

Altair - Pass Details

Date: 09 December 2019
Orbit: 1502 x 1682 km, 47.2° (Epoch: 19 January)

Event Time Altitude Azimuth Distance (km) Brightness Sun altitude
Rises 17:56:09 0° 237° (WSW) 4,949 11.1 28.7°
Reaches altitude 10° 17:59:24 10° 241° (WSW) 3,962 11.0 28.1°
Maximum altitude 18:09:16 57° 315° (NW) 1,930 8.8 26.1°
Drops below altitude 10° 18:18:58 10° 30° (NNE) 3,884 9.3 24.1°
Sets 18:22:08 0° 34° (NE) 4,846 9.7 23.5°
